Location: Robledo de Chavela
(40.5014°N, 4.2377°W)
Time: 02:43:07
(UTC+00:00)

BlueWalker 3 - Pass Details

Date: 18 April 2024
Orbit: 482 x 494 km, 53.2° (Epoch: 18 May)

Event Time Altitude Azimuth Distance (km) Brightness Sun altitude
Rises 20:26:56 0° 238° (WSW) 2,560 5.9 -16.1°
Reaches altitude 10° 20:29:07 10° 242° (WSW) 1,684 5.0 -16.4°
Maximum altitude 20:32:53 60° 324° (NW) 570 2.4 -17.0°
Drops below altitude 10° 20:36:41 10° 45° (NE) 1,701 4.5 -17.6°
Enters shadow 20:38:09 - 48° (NE) 2,284 5.1 -17.9°
